Clermont County, Batavia, OH

11:03 AM EST on December 09, 2019 (GMT -0500)
Clermont County, Batavia

Weather History for KI69 - October, 2019

Change the Weather History Date:

Tuesday, October 15, 2019

  Actual Average (KLUK) Record (KLUK)
Temperature  
Mean Temperature 57 °F -  
Max Temperature 75 °F 71 °F 85 °F (1962)
Min Temperature 39 °F 46 °F 28 °F (2006)
Degree Days  
Heating Degree Days 8    
Growing Degree Days 7 (Base 50)    
Moisture  
Dew Point 45 °F    
Average Humidity 70    
Maximum Humidity 97    
Minimum Humidity 35    
Precipitation  
Precipitation 0.00 in - - ()
Sea Level Pressure  
Sea Level Pressure 30.00 in    
Wind  
Wind Speed 2 mph (South)    
Max Wind Speed 12 mph    
Max Gust Speed 22 mph    
Visibility 10 miles    
Events      
Averages and records for this station are not official NWS values.
T = Trace of Precipitation, MM = Missing Value Source: NWS Daily Summary

Daily Weather History Graph

Daily Weather History Graph

Search for Another Location

Airport or City:

Astronomy

Oct. 15, 2019 Rise Set
Actual Time 7:46 AM EDT 6:58 PM EDT
Civil Twilight 7:19 AM EDT 7:25 PM EDT
Nautical Twilight 6:48 AM EDT 7:56 PM EDT
Astronomical Twilight 6:17 AM EDT 8:27 PM EDT
Moon 8:18 PM EDT (10/15) 9:15 AM EDT (10/15)
Length of Visible Light 12h 06m
Length of Day
11h 12m
Full, 97% of the Moon is Illuminated
Oct 15
Full
Oct 21
Last Quarter
Oct 27
New
Nov 4
First Quarter
Nov 12
Full

Hourly Weather History & Observations

Time (EDT) Temp. Windchill Dew Point Humidity Pressure Visibility Wind Dir Wind Speed Gust Speed Precip Events Conditions
12:15 AM 44.1 °F - 39.9 °F 85% 30.13 in 10.0 mi Calm Calm - N/A   Clear
12:39 AM 43.0 °F - 39.6 °F 88% 30.13 in 10.0 mi Calm Calm - N/A   Clear
12:57 AM 42.1 °F - 39.2 °F 90% 30.12 in 10.0 mi Calm Calm - N/A   Clear
1:16 AM 42.3 °F - 40.3 °F 93% 30.12 in 10.0 mi Calm Calm - N/A   Clear
1:35 AM 42.6 °F - 39.6 °F 89% 30.12 in 10.0 mi Calm Calm - N/A   Clear
1:55 AM 41.4 °F - 39.7 °F 94% 30.12 in 10.0 mi Calm Calm - N/A   Clear
2:19 AM 40.6 °F - 39.0 °F 94% 30.12 in 10.0 mi Calm Calm - N/A   Clear
2:37 AM 41.4 °F - 39.7 °F 94% 30.12 in 10.0 mi Calm Calm - N/A   Clear
2:56 AM 40.5 °F - 39.6 °F 97% 30.12 in 10.0 mi Calm Calm - N/A   Clear
3:15 AM 40.1 °F - 39.4 °F 97% 30.12 in 10.0 mi Calm Calm - N/A   Clear
3:35 AM 40.1 °F - 38.7 °F 95% 30.12 in 10.0 mi Calm Calm - N/A   Clear
3:59 AM 42.1 °F - 40.3 °F 93% 30.11 in 10.0 mi Calm Calm - N/A   Clear
4:17 AM 43.7 °F - 39.4 °F 85% 30.11 in 10.0 mi Calm Calm - N/A   Clear
4:35 AM 43.9 °F - 38.7 °F 82% 30.11 in 10.0 mi Calm Calm - N/A   Clear
4:55 AM 42.6 °F - 38.7 °F 86% 30.11 in 10.0 mi Calm Calm - N/A   Clear
5:15 AM 42.1 °F 40.2 °F 38.5 °F 87% 30.11 in 10.0 mi SE 3.5 mph - N/A   Clear
5:39 AM 42.8 °F 41.1 °F 38.3 °F 84% 30.11 in 10.0 mi SE 3.5 mph - N/A   Clear
5:57 AM 41.2 °F - 37.9 °F 88% 30.11 in 10.0 mi Calm Calm - N/A   Clear
6:15 AM 39.7 °F - 38.3 °F 95% 30.11 in 10.0 mi Calm Calm - N/A   Clear
6:35 AM 40.3 °F - 38.8 °F 95% 30.11 in 10.0 mi Calm Calm - N/A   Clear
6:36 AM 40.5 °F - 39.0 °F 95% 30.11 in 10.0 mi Calm Calm - N/A   Clear
6:55 AM 40.6 °F - 37.9 °F 90% 30.11 in 10.0 mi Calm Calm - N/A   Clear
7:19 AM 39.2 °F - 37.6 °F 94% 30.11 in 10.0 mi Calm Calm - N/A   Clear
7:37 AM 40.1 °F - 38.3 °F 93% 30.11 in 10.0 mi Calm Calm - N/A   Clear
7:55 AM 39.4 °F - 38.1 °F 95% 30.11 in 10.0 mi Calm Calm - N/A   Clear
8:15 AM 39.4 °F - 37.4 °F 93% 30.10 in 10.0 mi Calm Calm - N/A   Clear
8:16 AM 39.4 °F - 37.4 °F 93% 30.10 in 10.0 mi Calm Calm - N/A   Clear
8:35 AM 40.3 °F - 38.7 °F 94% 30.09 in 10.0 mi Calm Calm - N/A   Clear
8:59 AM 44.2 °F - 41.9 °F 91% 30.09 in 10.0 mi Calm Calm - N/A   Clear
9:17 AM 46.6 °F - 42.6 °F 86% 30.09 in 10.0 mi SE 3.5 mph - N/A   Clear
9:35 AM 48.4 °F - 43.0 °F 82% 30.09 in 10.0 mi ESE 3.5 mph - N/A   Clear
9:56 AM 51.1 °F - 43.5 °F 75% 30.09 in 10.0 mi SE 4.6 mph - N/A   Clear
10:15 AM 53.6 °F - 43.9 °F 70% 30.09 in 10.0 mi Calm Calm - N/A   Clear
10:39 AM 57.6 °F - 44.4 °F 62% 30.09 in 10.0 mi Calm Calm - N/A   Clear
10:57 AM 60.6 °F - 44.6 °F 56% 30.08 in 10.0 mi Calm Calm - N/A   Clear
11:15 AM 62.6 °F - 45.5 °F 54% 30.07 in 10.0 mi SE 3.5 mph - N/A   Clear
11:35 AM 64.8 °F - 44.4 °F 48% 30.06 in 10.0 mi ESE 4.6 mph - N/A   Clear
11:55 AM 66.2 °F - 40.5 °F 39% 30.05 in 10.0 mi South 6.9 mph - N/A   Clear
12:19 PM 68.5 °F - 42.8 °F 39% 30.03 in 10.0 mi SE 5.8 mph - N/A   Clear
12:37 PM 68.5 °F - 43.0 °F 40% 30.02 in 10.0 mi South 5.8 mph - N/A   Clear
12:55 PM 69.8 °F - 43.7 °F 39% 30.01 in 10.0 mi SSE 5.8 mph - N/A   Clear
1:15 PM 70.3 °F - 43.5 °F 38% 29.99 in 10.0 mi SE 6.9 mph - N/A   Clear
1:35 PM 71.4 °F - 43.9 °F 37% 29.98 in 10.0 mi South 9.2 mph - N/A   Clear
1:59 PM 70.9 °F - 43.2 °F 37% 29.97 in 10.0 mi SSE 9.2 mph - N/A   Scattered Clouds
2:17 PM 72.9 °F - 43.9 °F 35% 29.94 in 10.0 mi SE 10.4 mph - N/A   Mostly Cloudy
2:35 PM 72.9 °F - 43.7 °F 35% 29.94 in 10.0 mi SSW 9.2 mph 16.1 mph N/A   Mostly Cloudy
2:55 PM 73.9 °F - 45.3 °F 36% 29.93 in 10.0 mi South 10.4 mph 21.9 mph N/A   Scattered Clouds
3:39 PM 74.3 °F - 47.1 °F 38% 29.91 in 10.0 mi SSW 10.4 mph 19.6 mph N/A   Clear
3:57 PM 75.2 °F - 48.7 °F 39% 29.90 in 10.0 mi SSW 11.5 mph 17.3 mph N/A   Clear
4:15 PM 74.3 °F - 50.7 °F 43% 29.89 in 10.0 mi SW 10.4 mph - N/A   Clear
4:35 PM 73.9 °F - 51.3 °F 45% 29.89 in 10.0 mi SW 10.4 mph 16.1 mph N/A   Clear
4:55 PM 73.4 °F - 52.2 °F 47% 29.89 in 10.0 mi SSW 9.2 mph 18.4 mph N/A   Clear
5:18 PM 73.4 °F - 52.0 °F 47% 29.88 in 10.0 mi SSW 6.9 mph 16.1 mph N/A   Clear
5:37 PM 73.2 °F - 52.0 °F 47% 29.87 in 10.0 mi SSW 8.1 mph - N/A   Clear
5:55 PM 73.0 °F - 52.2 °F 48% 29.87 in 10.0 mi SSW 6.9 mph - N/A   Clear
6:15 PM 72.5 °F - 52.2 °F 49% 29.87 in 10.0 mi South 4.6 mph - N/A   Clear
6:35 PM 71.2 °F - 51.8 °F 50% 29.87 in 10.0 mi SSW 4.6 mph - N/A   Clear
6:58 PM 69.8 °F - 52.2 °F 53% 29.86 in 10.0 mi Calm Calm - N/A   Clear
7:17 PM 68.5 °F - 52.9 °F 57% 29.86 in 10.0 mi Calm Calm - N/A   Clear
7:35 PM 67.5 °F - 53.4 °F 61% 29.86 in 10.0 mi SSW 3.5 mph - N/A   Clear
7:55 PM 67.3 °F - 53.8 °F 62% 29.86 in 10.0 mi SW 4.6 mph - N/A   Clear
8:15 PM 67.3 °F - 54.1 °F 63% 29.87 in 10.0 mi SW 4.6 mph - N/A   Mostly Cloudy
8:38 PM 67.3 °F - 54.5 °F 63% 29.87 in 10.0 mi SSW 4.6 mph - N/A   Overcast
8:56 PM 67.1 °F - 54.5 °F 64% 29.86 in 10.0 mi SSW 5.8 mph - N/A   Overcast
9:15 PM 67.1 °F - 54.7 °F 64% 29.84 in 10.0 mi South 4.6 mph - N/A   Overcast
9:35 PM 66.6 °F - 55.4 °F 67% 29.84 in 10.0 mi SSW 4.6 mph - N/A   Mostly Cloudy
9:55 PM 65.7 °F - 55.6 °F 70% 29.84 in 10.0 mi SSW 4.6 mph - N/A   Scattered Clouds
10:18 PM 65.5 °F - 55.8 °F 71% 29.84 in 10.0 mi South 4.6 mph - N/A   Mostly Cloudy
10:36 PM 64.9 °F - 55.9 °F 73% 29.83 in 10.0 mi South 4.6 mph - N/A   Scattered Clouds
10:55 PM 64.4 °F - 56.1 °F 74% 29.82 in 10.0 mi South 5.8 mph - N/A   Mostly Cloudy
10:56 PM 64.4 °F - 56.1 °F 74% 29.82 in 10.0 mi SSW 4.6 mph - N/A   Scattered Clouds
11:15 PM 64.8 °F - 56.3 °F 74% 29.81 in 10.0 mi South 8.1 mph - N/A   Mostly Cloudy
11:35 PM 65.3 °F - 56.7 °F 74% 29.81 in 10.0 mi SSW 6.9 mph - N/A   Scattered Clouds
11:58 PM 65.3 °F - 57.2 °F 75% 29.80 in 10.0 mi SSW 6.9 mph - N/A   Scattered Clouds